Location: STAR School
(35.3054°N, 111.2976°W)
Time: 03:50:34
(UTC-07:00)

Tiros 1 - Visible Passes

Search period start: 15 October 2019 00:00
Search period end: 25 October 2019 00:00
Orbit: 630 x 664 km, 48.4° (Epoch: 14 October)

Date Brightness Start Highest point End Pass type
(mag) Time Alt. Az. Time Alt. Az. Time Alt. Az.
15 Oct 8.6 04:09:43 31° NNE 04:09:43 31° NNE 04:12:33 10° NE visible
15 Oct 9.0 05:47:36 10° WNW 05:51:01 19° N 05:54:27 10° NE visible
16 Oct 8.6 04:34:49 27° N 04:34:49 27° N 04:38:26 10° NE visible
17 Oct 10.2 03:22:12 12° NE 03:22:12 12° NE 03:22:32 10° NE visible
17 Oct 8.9 04:59:52 18° NNW 05:00:55 19° NNW 05:04:25 10° NE visible
18 Oct 9.7 03:47:14 16° NNE 03:47:14 16° NNE 03:48:25 10° NE visible
18 Oct 9.2 05:24:54 11° NW 05:27:40 17° N 05:30:47 10° NE visible
19 Oct 9.3 04:12:14 18° N 04:12:14 18° N 04:14:22 10° NE visible
19 Oct 9.2 05:51:11 10° NW 05:54:27 18° N 05:57:42 10° NE visible
20 Oct 9.2 04:37:14 17° N 04:37:34 17° N 04:40:41 10° NE visible
21 Oct 9.3 05:02:14 14° NNW 05:04:21 17° N 05:07:34 10° NE visible
22 Oct 9.8 03:49:35 13° NNE 03:49:35 13° NNE 03:50:36 10° NE visible
22 Oct 9.1 05:27:17 10° NW 05:31:02 22° NNE 05:34:48 10° ENE visible
23 Oct 9.4 04:14:38 17° NNE 04:14:38 17° NNE 04:17:25 10° NE visible
23 Oct 8.5 05:53:10 10° NW 05:57:33 34° NNE 06:01:56 10° E visible
24 Oct 9.0 04:39:43 19° N 04:40:57 21° NNE 04:44:39 10° ENE visible
